伽利略0201星导航星座 (GSAT0201 (GALILEO 5))

导读

GALILEO 5是欧洲空间局(ESA)发射的伽利略导航系统卫星,于2014年8月22日发射升空。它是伽利略全球卫星导航系统的重要组成部分,承担着提供高精度定位、导航与授时服务的功能,推动了欧洲自主导航系统的组网进程,为全球用户提供了独立于GPS之外的导航选择。

Basic Information
目录编号:
40128
目录名称:
GALILEO 5 (261)
国际标识:
2014-050A
轨道中心:
EARTH
卫星名称:
伽利略0201星
卫星全名:
伽利略0201星导航星座 (GSAT0201 (GALILEO 5))
卫星状态:
在轨 (已飞行4313 天)
发射日期:
2014-08-22 UTC
国别 :
(ESA)
星等 :
--
Orbit Information
数据来源 国际轨道数据 AOE轨道数据
星历时间 2026-06-11T06:46:42+0800
2天前
查看轨道信息
2026-06-12T07:00:00+0800
1天前
查看轨道信息
半长轴 27977.453km 27977.443km
偏心率 0.1673633 0.1673736
轨道倾角 48.883° 48.882°
近地点辐角 179.149° 179.185°
升交点赤经 273.692° 273.652°
平近点角 181.219° 135.258°
近地点 16916.917km 16916.62km
远地点 26281.715km 26281.992km
周期 776.197分钟 776.197分钟
每日圈数 1.855199 1.8552
Detailed Information
平衡模式:
三轴稳定
覆盖范围:
全球
运营商:
欧盟空间计划局
运营商所在国:
法国大都会
使用方式:
暂无
Satellite Introduction
伽利略定位系统(Galileo)是一个全球导航卫星系统,于2016年投入使用由欧盟通过ESA创建,由欧盟空间计划局(EUSPA)运营。该系统有两个地面操控站,并且在高纬度地区提供比其他系统更好的定位服务。该卫星仍在工作。
2D Orbit Map
3D Orbit Map
Orbit Altitude Analysis Chart
Orbit Inclination Analysis Chart
Orbit Comprehensive Analysis Chart
View Comprehensive Chart